User: anonymous   Login
Location: Unspecified
(0.0000°N, 0.0000°E)
Time: 10:14:58
(UTC+00:00)
Language:

COSMOS 2437 - Orbit

View from above orbital plane
View from above orbital plane
View from above satellite
View from above satellite

Ground track
Ground track

The orbit data is extracted from the following two-line orbital elements,

1 32954U 08025B   17080.86319295 +.00000013 +00000-0 +22710-4 0  9997
2 32954 082.4996 294.9083 0020802 125.8222 234.4791 12.42688755400475
Epoch (UTC): 21 March 2017 20:42:59
Eccentricity: 0.0020802
inclination: 82.4996°
perigee height: 1479 km
apogee height: 1511 km
right ascension of ascending node: 294.9083°
argument of perigee: 125.8222°
revolutions per day: 12.42688755
mean anomaly at epoch: 234.4791°
orbit number at epoch: 40047

The dashed part of the orbit path shows where the satellite is in the earth's shadow,  

DLR